Station 45165 - Toledo Water Intake Buoy, Oregon, OH Image indicating link to RSS feed of recent meteorological observations for station 45165


Conditions at 45165 as of
(6:50 pm EDT)
2250 GMT on 07/18/2024:
     

Click on the graph icon in the table below to see a time series plot of the last five days of that observation.

5-day plot - Wind Direction Wind Direction (WDIR): N ( 350 deg true )
5-day plot - Wind Speed Wind Speed (WSPD): 5.8 kts
5-day plot - Wind Gust Wind Gust (GST): 9.7 kts
5-day plot - Wave Height Wave Height (WVHT): 0.7 ft
5-day plot - Mean Wave Direction Mean Wave Direction (MWD):NNE ( 29 deg true )
5-day plot - Air Temperature Air Temperature (ATMP): 72.3 °F
5-day plot - Water Temperature Water Temperature (WTMP): 78.8 °F
5-day plot - Wind Speed at 10 Meters Wind Speed at 10 meters (WSPD10M): 7.8 kts
5-day plot - Wind Speed at 20 Meters Wind Speed at 20 meters (WSPD20M): 7.8 kts
5-day plot -  Wind Speed, Wind Gust and Atmospheric Pressure Combined plot of Wind Speed, Gust, and Air Pressure
Previous observations
TIME
(EDT)
5-day plot - Wind Direction
WDIR
 
5-day plot - Wind Speed
WSPD
kts
5-day plot - Wind Gust
GST
kts
5-day plot - Wave Height
WVHT
ft
5-day plot - Dominant Wave Period
DPD
sec
5-day plot - Average Wave Period
APD
sec
5-day plot - Mean Wave Direction
MWD
 
5-day plot - Atmospheric Pressure
PRES
in
5-day plot - Pressure Tendency
PTDY
in
5-day plot - Air Temperature
ATMP
°F
5-day plot - Water Temperature
WTMP
°F
5-day plot - Dew Point
DEWP
°F
5-day plot - Salinity
SAL
psu
5-day plot - Visibility
VIS
nmi
5-day plot - Tide (above MLLW)
TIDE
ft
2024-07-18 06:40 pmNNW 5.8 9.7 0.7--NNE-- 72.3 79.0----
2024-07-18 06:30 pm N 5.8 9.7 0.7--NNE-- 72.3 79.0----
2024-07-18 06:20 pm N 5.8 9.7 1.0 2-NNE-- 72.3 79.2----
2024-07-18 06:10 pmNNW 7.8 9.7 0.7--NNE-- 72.3 79.2----
2024-07-18 05:50 pm N 5.8 11.7 0.7--NNE-- 72.3 79.3----
2024-07-18 05:40 pmNNW 5.8 7.8 0.7--NNE-- 72.1 79.3----
2024-07-18 05:30 pmNNW 5.8 9.7 0.7-- N-- 72.3 79.3----
2024-07-18 05:20 pm NW 5.8 7.8 0.7-- N-- 72.0 79.3----
2024-07-18 05:10 pm NW 5.8 7.8 0.7--NNE-- 72.0 79.5----
2024-07-18 04:50 pm NW 5.8 7.8 0.7-- NE-- 71.6 79.7----
2024-07-18 04:40 pm NW 3.9 7.8 0.7--NNE-- 71.8 79.9----
2024-07-18 04:30 pmWNW 3.9 5.8 0.7--NNE-- 71.6 79.7----
2024-07-18 04:20 pmNNW 3.9 5.8 0.7-- NE-- 71.2 79.9----
2024-07-18 04:10 pm NW 3.9 5.8 0.7-- NE-- 71.2 79.7----
2024-07-18 03:50 pmWNW 1.9 3.9 0.7--ENE-- 70.9 79.5----
2024-07-18 03:40 pmNNW 3.9 5.8 0.7-- NE-- 70.5 79.5----
2024-07-18 03:30 pmNNW 1.9 5.8 0.7-- NE-- 70.7 79.5----
2024-07-18 03:20 pmNNW 1.9 3.9 0.7-- NE-- 70.3 79.5----
2024-07-18 03:10 pmWNW 1.9 3.9 0.7--NNE-- 70.5 79.3----
2024-07-18 03:00 pmWNW 1.9 3.9 0.7-- NE-- 70.2 79.3----
2024-07-18 02:50 pm NW 1.9 5.8 1.0 3-NNE-- 70.0 79.2----
2024-07-18 02:40 pm NW 3.9 5.8 1.0 3-NNE-- 69.6 79.0----
2024-07-18 02:30 pmWNW 1.9 5.8 1.0 3-NNE-- 69.8 78.8----
2024-07-18 02:20 pmNNW 1.9 5.8 1.0 3- NE-- 69.4 78.8----
2024-07-18 02:10 pmNNW 1.9 5.8 1.0 3-NNE-- 69.3 78.6----
2024-07-18 01:50 pmNNW 1.9 3.9 1.0 3-NNE-- 68.7 78.3----
2024-07-18 01:40 pm N 3.9 5.8 1.0 3-NNE-- 68.5 78.1----
2024-07-18 01:30 pmNNW 3.9 5.8 1.0 3-NNE-- 68.4 78.1----
2024-07-18 01:20 pmNNW 3.9 7.8 1.0 3-NNE-- 68.5 77.9----
2024-07-18 01:10 pm NW 3.9 7.8 1.0 3-NNE-- 68.4 77.9----
2024-07-18 12:50 pmNNW 5.8 7.8 1.3 3-NNE-- 68.2 77.7----
2024-07-18 12:40 pm NW 7.8 11.7 1.3 3-NNE-- 68.0 77.7----
2024-07-18 12:30 pm NW 5.8 9.7 1.3 3-NNE-- 68.0 77.7----
2024-07-18 12:20 pm NW 5.8 9.7 1.3 3-NNE-- 67.8 77.5----
2024-07-18 12:10 pm NW 7.8 9.7 1.6 3-NNE-- 67.6 77.5----
2024-07-18 12:00 pm NW 7.8 11.7 1.6 3-NNE-- 67.5 77.5----
2024-07-18 11:50 am NW 7.8 11.7 1.3 3-NNE-- 67.5 77.5----
2024-07-18 11:40 am NW 7.8 13.6 1.3 3- N-- 67.5 77.5----
2024-07-18 11:30 am NW 7.8 11.7 1.6 3-NNE-- 67.5 77.5----
2024-07-18 11:20 am NW 7.8 11.7 1.6 3-NNE-- 67.5 77.4----
2024-07-18 11:10 am NW 7.8 11.7 1.6 3- N-- 67.1 77.4----
2024-07-18 10:50 am NW 9.7 11.7 1.6 3-NNE-- 66.9 77.4----
2024-07-18 10:40 am NW 7.8 11.7 1.6 3-NNE-- 66.9 77.4----
2024-07-18 10:30 am NW 7.8 13.6 1.6 3- N-- 66.9 77.4----
2024-07-18 10:20 am NW 7.8 11.7 1.6 3- N-- 66.4 77.4----
2024-07-18 10:10 am NW 7.8 11.7 1.6 3-NNE-- 66.2 77.4----
2024-07-18 10:00 am NW 7.8 11.7 2.0 3- N-- 66.0 77.4----
2024-07-18 09:50 am NW 9.7 13.6 2.0 3-NNE-- 66.0 77.4----
2024-07-18 09:40 am NW 9.7 13.6 2.0 3- N-- 65.8 77.4----
2024-07-18 09:30 am NW 9.7 13.6 2.0 3- N-- 65.8 77.4----
2024-07-18 09:20 am NW 9.7 13.6 2.0 3-NNE-- 65.7 77.4----
2024-07-18 09:10 am NW 11.7 15.5 2.0 3- N-- 65.5 77.4----
2024-07-18 09:00 am NW 11.7 13.6 2.0 3- N-- 65.7 77.4----
2024-07-18 08:50 am NW 11.7 15.5 2.0 3- N-- 65.7 77.4----
2024-07-18 08:40 am NW 11.7 17.5 2.0 3- N-- 65.7 77.4----
2024-07-18 08:30 am NW 13.6 19.4 2.3 3- N-- 65.5 77.4----
2024-07-18 08:20 am NW 13.6 17.5 2.3 4- N-- 65.5 77.4----
2024-07-18 08:10 am NW 13.6 19.4 2.3 4- N-- 65.3 77.4----
2024-07-18 08:00 am NW 13.6 19.4 2.3 4- N-- 65.3 77.4----
2024-07-18 07:50 am NW 13.6 17.5 2.0 3- N-- 65.3 77.4----
2024-07-18 07:40 am NW 13.6 17.5 2.3 3- N-- 65.3 77.4----
2024-07-18 07:30 am NW 13.6 19.4 2.3 4-NNE-- 65.1 77.4----
2024-07-18 07:20 am NW 13.6 17.5 2.3 4- N-- 65.3 77.4----
2024-07-18 07:10 am NW 13.6 19.4 2.3 4- N-- 65.7 77.4----
2024-07-18 06:50 am NW 13.6 19.4 2.3 4- N-- 65.8 77.4----
2024-07-18 06:40 am NW 13.6 17.5 2.3 3- N-- 66.0 77.4----
2024-07-18 06:30 am NW 13.6 19.4 2.6 4- N-- 65.8 77.4----
2024-07-18 06:20 am NW 13.6 19.4 2.3 3- N-- 65.8 77.4----
2024-07-18 06:10 amWNW 13.6 19.4 2.3 4- N-- 66.0 77.4----
2024-07-18 06:00 am NW 13.6 19.4 2.3 4- N-- 66.2 77.4----
2024-07-18 05:50 am NW 13.6 19.4 2.3 4- N-- 66.6 77.4----
2024-07-18 05:40 amWNW 15.5 19.4 2.3 4- N-- 66.7 77.4----
2024-07-18 05:30 am NW 13.6 19.4 2.6 4- N-- 66.9 77.4----
2024-07-18 05:20 amWNW 13.6 19.4 2.3 4- N-- 67.3 77.4----
2024-07-18 05:10 am NW 13.6 19.4 2.6 4- N-- 67.5 77.4----
2024-07-18 04:50 am NW 13.6 19.4 2.6 4- N-- 67.8 77.5----
2024-07-18 04:40 am NW 13.6 21.4 3.0 4- N-- 67.8 77.5----
2024-07-18 04:30 am NW 15.5 19.4 2.6 3- N-- 68.0 77.5----
2024-07-18 04:20 am NW 15.5 19.4 2.6 4- N-- 68.4 77.5----
2024-07-18 04:10 am NW 15.5 21.4 2.3 4- N-- 68.2 77.7----
2024-07-18 04:00 amWNW 15.5 21.4 2.6 3- N-- 68.4 77.7----
2024-07-18 03:50 amWNW 15.5 21.4 2.6 3- N-- 68.9 77.5----
2024-07-18 03:40 amWNW 15.5 21.4 2.6 3- N-- 69.1 77.5----
2024-07-18 03:30 am NW 15.5 23.3 2.3 3-NNW-- 69.3 77.5----
2024-07-18 03:20 am NW 15.5 23.3 2.6 4-NNW-- 69.4 77.7----
2024-07-18 03:10 am NW 17.5 23.3 3.0 3- N-- 69.8 77.7----
2024-07-18 02:50 am NW 17.5 23.3 2.6 4- N-- 70.5 77.7----
2024-07-18 02:40 am NW 17.5 23.3 2.6 3- N-- 70.7 77.9----
2024-07-18 02:30 am NW 17.5 21.4 2.6 3- N-- 70.9 77.9----
2024-07-18 02:20 am NW 17.5 21.4 2.6 3-NNW-- 70.9 77.9----
2024-07-18 02:10 amWNW 17.5 21.4 2.3 3- N-- 71.1 77.9----
2024-07-18 02:00 amWNW 17.5 23.3 2.3 3- N-- 71.2 77.9----
2024-07-18 01:50 amWNW 17.5 21.4 2.3 3- N-- 71.6 77.9----
2024-07-18 01:40 amWNW 15.5 21.4 2.6 3- N-- 71.8 77.9----
2024-07-18 01:30 amWNW 15.5 21.4 2.3 3- N-- 72.0 77.9----
2024-07-18 01:20 amWNW 15.5 21.4 2.3 3- N-- 72.1 77.9----
2024-07-18 01:10 amWNW 15.5 21.4 2.3 3- N-- 72.3 77.9----
2024-07-18 01:00 amWNW 15.5 21.4 2.3 3- N-- 72.5 77.9----
2024-07-18 12:50 amWNW 15.5 21.4 2.3 3- N-- 72.7 78.1----
2024-07-18 12:40 amWNW 15.5 21.4 2.3 3- N-- 72.9 78.1----
2024-07-18 12:30 amWNW 17.5 21.4 2.0 3-NNE-- 73.2 78.1----
2024-07-18 12:20 am W 15.5 21.4 1.6 3-NNE-- 73.8 78.1----
2024-07-18 12:10 amWNW 15.5 19.4 1.6 3-NNE-- 74.3 78.1----
2024-07-18 12:00 am NW 11.7 17.5 1.6 3- N-- 74.5 78.3----
2024-07-17 11:50 pm N 9.7 13.6 1.6 3- N-- 74.7 78.3----
2024-07-17 11:40 pm N 9.7 13.6 1.6 3-NNW-- 74.7 78.3----
2024-07-17 11:30 pm N 11.7 15.5 1.6 3-NNW-- 74.7 78.3----
2024-07-17 11:20 pm N 11.7 15.5 1.6 3-NNW-- 74.8 78.3----
2024-07-17 11:10 pm N 11.7 17.5 1.6 3-NNW-- 75.0 78.3----
2024-07-17 11:00 pm N 11.7 15.5 1.6 3- NW-- 75.2 78.3----
2024-07-17 10:50 pmNNW 11.7 15.5 1.6 3- NW-- 75.6 78.3----
2024-07-17 10:40 pmNNW 9.7 13.6 1.6 3- NW-- 75.9 78.3----
2024-07-17 10:30 pm NW 7.8 11.7 2.0 3- NW-- 76.1 78.3----
2024-07-17 10:20 pmNNW 9.7 15.5 2.0 3- NW-- 76.1 78.4----
2024-07-17 10:10 pmNNW 11.7 17.5 2.0 3- NW-- 76.1 78.4----
2024-07-17 10:00 pmWNW 13.6 19.4 2.0 3- NW-- 76.8 78.4----
2024-07-17 09:50 pm W 13.6 19.4 2.0 3- NW-- 77.2 78.4----
2024-07-17 09:40 pm W 15.5 19.4 2.0 3- NW-- 77.5 78.4----
2024-07-17 09:30 pm W 15.5 19.4 2.0 3- NW-- 77.7 78.4----
2024-07-17 09:20 pm W 15.5 21.4 2.0 3- NW-- 78.1 78.6----
2024-07-17 09:10 pm W 15.5 19.4 2.0 3- NW-- 78.4 78.6----
2024-07-17 09:00 pm W 15.5 19.4 1.6 3- NW-- 78.8 78.6----
2024-07-17 08:50 pm W 15.5 19.4 1.6 3- NW-- 79.0 78.8----
2024-07-17 08:40 pm W 15.5 19.4 1.3 2- NW-- 79.3 78.8----
2024-07-17 08:30 pm W 15.5 19.4 1.3 2- NW-- 79.7 79.0----
2024-07-17 08:20 pm W 13.6 19.4 1.0 2- NW-- 79.9 79.0----
2024-07-17 08:10 pm W 13.6 17.5 0.7-- NW-- 80.2 79.2----
2024-07-17 08:00 pm W 9.7 15.5 0.7--NNW-- 79.9 79.2----
2024-07-17 07:50 pm E 1.9 1.9 0.7--NNW-- 79.7 79.2----
2024-07-17 07:40 pm NW 1.9 3.9 0.7-- NW-- 79.5 79.2----
2024-07-17 07:30 pm N 1.9 1.9 1.0 2- NW-- 79.3 79.2----
2024-07-17 07:20 pmNNW 3.9 3.9 1.0 2- NW-- 79.2 79.2----
2024-07-17 07:10 pmNNW 3.9 5.8 1.0 2-WNW-- 79.0 79.2----
2024-07-17 07:00 pmNNW 3.9 5.8 1.0 2-WNW-- 79.0 79.3----
2024-07-17 06:50 pmNNW 5.8 7.8 1.0 2- NW-- 78.8 79.3----

Detailed Wave Summary
for 45165 as of (6:50 pm EDT)
2250 GMT on 07/18/2024:

These wave data are displayed in rounded times.

     

Click on the graph icon in the table below to see a time series plot of the last five days of that observation.

5-day plot - Significant Wave Height Significant Wave Height (WVHT): 0.7 ft
Previous observations
TIME
(EDT)
5-day plot - Wave Height
WVHT
ft
5-day plot - Swell Height
SwH
ft
5-day plot - Swell Period
SwP
sec
5-day plot - Swell Direction
SwD
 
5-day plot - Wind Wave Height
WWH
ft
5-day plot - Wind Wave Period
WWP
sec
5-day plot - Wind Wave Direction
WWD
 
5-day plot - Wave Steepness
STEEPNESS
 
5-day plot - Average Wave Period
APD
sec
2024-07-18 06:40 pm 0.7------ N/A-
2024-07-18 06:30 pm 0.7------ N/A-
2024-07-18 06:20 pm 1.0------ N/A-
2024-07-18 06:10 pm 0.7------ N/A-
2024-07-18 05:50 pm 0.7------ N/A-
2024-07-18 05:40 pm 0.7------ N/A-
2024-07-18 05:30 pm 0.7------ N/A-
2024-07-18 05:20 pm 0.7------ N/A-
2024-07-18 05:10 pm 0.7------ N/A-
2024-07-18 04:50 pm 0.7------ N/A-
2024-07-18 04:40 pm 0.7------ N/A-
2024-07-18 04:30 pm 0.7------ N/A-
2024-07-18 04:20 pm 0.7------ N/A-
2024-07-18 04:10 pm 0.7------ N/A-
2024-07-18 03:50 pm 0.7------ N/A-
2024-07-18 03:40 pm 0.7------ N/A-
2024-07-18 03:30 pm 0.7------ N/A-
2024-07-18 03:20 pm 0.7------ N/A-
2024-07-18 03:10 pm 0.7------ N/A-
2024-07-18 03:00 pm 0.7------ N/A-
2024-07-18 02:50 pm 0.7------ N/A-
2024-07-18 02:40 pm 1.0------ N/A-
2024-07-18 02:30 pm 1.0------ N/A-
2024-07-18 02:20 pm 1.0------ N/A-
2024-07-18 02:10 pm 1.0------ N/A-
2024-07-18 01:50 pm 1.0------ N/A-
2024-07-18 01:40 pm 1.0------ N/A-
2024-07-18 01:30 pm 1.0------ N/A-
2024-07-18 01:20 pm 1.0------ N/A-
2024-07-18 01:10 pm 1.0------ N/A-
2024-07-18 12:50 pm 1.3------ N/A-
2024-07-18 12:40 pm 1.3------ N/A-
2024-07-18 12:30 pm 1.3------ N/A-
2024-07-18 12:20 pm 1.3------ N/A-
2024-07-18 12:10 pm 1.6------ N/A-
2024-07-18 12:00 pm 1.6------ N/A-
2024-07-18 11:50 am 1.3------ N/A-
2024-07-18 11:40 am 1.3------ N/A-
2024-07-18 11:30 am 1.6------ N/A-
2024-07-18 11:20 am 1.6------ N/A-
2024-07-18 11:10 am 1.6------ N/A-
2024-07-18 10:50 am 1.6------ N/A-
2024-07-18 10:40 am 1.6------ N/A-
2024-07-18 10:30 am 1.6------ N/A-
2024-07-18 10:20 am 1.6------ N/A-
2024-07-18 10:10 am 1.6------ N/A-
2024-07-18 10:00 am 2.0------ N/A-
2024-07-18 09:50 am 2.0------ N/A-
2024-07-18 09:40 am 2.0------ N/A-
2024-07-18 09:30 am 2.0------ N/A-
2024-07-18 09:20 am 2.0------ N/A-
2024-07-18 09:10 am 2.0------ N/A-
2024-07-18 09:00 am 2.0------ N/A-
2024-07-18 08:50 am 2.0------ N/A-
2024-07-18 08:40 am 2.0------ N/A-
2024-07-18 08:30 am 2.3------ N/A-
2024-07-18 08:20 am 2.3------ N/A-
2024-07-18 08:10 am 2.3------ N/A-
2024-07-18 08:00 am 2.3------ N/A-
2024-07-18 07:50 am 2.0------ N/A-
2024-07-18 07:40 am 2.3------ N/A-
2024-07-18 07:30 am 2.3------ N/A-
2024-07-18 07:20 am 2.3------ N/A-
2024-07-18 07:10 am 2.3------ N/A-
2024-07-18 06:50 am 2.3------ N/A-
2024-07-18 06:40 am 2.3------ N/A-
2024-07-18 06:30 am 2.6------ N/A-
2024-07-18 06:20 am 2.3------ N/A-
2024-07-18 06:10 am 2.3------ N/A-
2024-07-18 06:00 am 2.3------ N/A-
2024-07-18 05:50 am 2.3------ N/A-
2024-07-18 05:40 am 2.3------ N/A-
2024-07-18 05:30 am 2.6------ N/A-
2024-07-18 05:20 am 2.3------ N/A-
2024-07-18 05:10 am 2.6------ N/A-
2024-07-18 04:50 am 2.6------VERY_STEEP-
2024-07-18 04:40 am 3.0------VERY_STEEP-
2024-07-18 04:30 am 2.6------VERY_STEEP-
2024-07-18 04:20 am 2.6------ N/A-
2024-07-18 04:10 am 2.3------ N/A-
2024-07-18 04:00 am 2.6------VERY_STEEP-
2024-07-18 03:50 am 2.6------VERY_STEEP-
2024-07-18 03:40 am 2.6------VERY_STEEP-
2024-07-18 03:30 am 2.3------ N/A-
2024-07-18 03:20 am 2.6------VERY_STEEP-
2024-07-18 03:10 am 3.0------VERY_STEEP-
2024-07-18 02:50 am 2.6------VERY_STEEP-
2024-07-18 02:40 am 2.6------VERY_STEEP-
2024-07-18 02:30 am 2.6------VERY_STEEP-
2024-07-18 02:20 am 2.6------VERY_STEEP-
2024-07-18 02:10 am 2.3------ N/A-
2024-07-18 02:00 am 2.3------ N/A-
2024-07-18 01:50 am 2.3------ N/A-
2024-07-18 01:40 am 2.6------ N/A-
2024-07-18 01:30 am 2.3------ N/A-
2024-07-18 01:20 am 2.3------ N/A-
2024-07-18 01:10 am 2.3------ N/A-
2024-07-18 01:00 am 2.3------ N/A-
2024-07-18 12:50 am 2.3------ N/A-
2024-07-18 12:40 am 2.3------ N/A-
2024-07-18 12:30 am 2.0------ N/A-
2024-07-18 12:20 am 1.6------ N/A-
2024-07-18 12:10 am 1.6------ N/A-
2024-07-18 12:00 am 1.6------ N/A-
2024-07-17 11:50 pm 1.6------ N/A-
2024-07-17 11:40 pm 1.6------ N/A-
2024-07-17 11:30 pm 1.6------ N/A-
2024-07-17 11:20 pm 1.6------ N/A-
2024-07-17 11:10 pm 1.6------ N/A-
2024-07-17 11:00 pm 1.6------ N/A-
2024-07-17 10:50 pm 1.6------ N/A-
2024-07-17 10:40 pm 1.6------ N/A-
2024-07-17 10:30 pm 2.0------ N/A-
2024-07-17 10:20 pm 2.0------ N/A-
2024-07-17 10:10 pm 2.0------ N/A-
2024-07-17 10:00 pm 2.0------ N/A-
2024-07-17 09:50 pm 2.0------ N/A-
2024-07-17 09:40 pm 2.0------ N/A-
2024-07-17 09:30 pm 2.0------ N/A-
2024-07-17 09:20 pm 2.0------ N/A-
2024-07-17 09:10 pm 2.0------ N/A-
2024-07-17 09:00 pm 1.6------ N/A-
2024-07-17 08:50 pm 1.6------ N/A-
2024-07-17 08:40 pm 1.3------ N/A-
2024-07-17 08:30 pm 1.3------ N/A-
2024-07-17 08:20 pm 1.0------ N/A-
2024-07-17 08:10 pm 0.7------ N/A-
2024-07-17 08:00 pm 0.7------ N/A-
2024-07-17 07:50 pm 0.7------ N/A-
2024-07-17 07:40 pm 0.7------ N/A-
2024-07-17 07:30 pm 1.0------ N/A-
2024-07-17 07:20 pm 1.0------ N/A-
2024-07-17 07:10 pm 1.0------ N/A-
2024-07-17 07:00 pm 1.0------ N/A-
2024-07-17 06:50 pm 1.0------ N/A-

Disclaimer: Ocean current directions are reported to the nearest 10 degrees and speeds are measured to the nearest whole centimeter per second.

Ocean Current Data for 45165

Unit of Measure:   Time Zone:   
6:50 pm EDT 6:40 pm EDT 6:30 pm EDT 6:20 pm EDT 6:10 pm EDT 5:50 pm EDT 5:40 pm EDT 5:30 pm EDT
Depth
ft
Dir
°
Speed
kts
Dir
°
Speed
kts
Dir
°
Speed
kts
Dir
°
Speed
kts
Dir
°
Speed
kts
Dir
°
Speed
kts
Dir
°
Speed
kts
Dir
°
Speed
kts
3 190 0.06180 0.02180 0.08130 0.04180 0.04160 0.02220 0.04200 0.02
7 140 0.17100 0.08 70 0.06160 0.14180 0.29110 0.14170 0.06180 0.08
10 110 0.14100 0.14120 0.19120 0.21120 0.17120 0.12150 0.10110 0.12
13 70 0.16 70 0.17 90 0.23 90 0.23 80 0.21 90 0.16 90 0.10 60 0.12
16 80 0.14 80 0.14 90 0.19 90 0.21 70 0.14 80 0.16 80 0.14 50 0.14
20 80 0.08100 0.10110 0.10 90 0.14 70 0.06 90 0.10 80 0.10 60 0.06

Previous (up to 48) reports of ocean current data for 45165

Ocean Current Stick Plots are available in metric units only:

All Instruments - 1-day plot - ocean current 1-day plot     3-day plot - ocean current 3-day plot     5-day plot - ocean current 5-day plot     


Solar Radiation Conditions at 45165 as of
(6:50 pm EDT)
2250 GMT on 07/18/2024:
     

Click on the graph icon in the table below to see a time series plot of the last five days of that observation.

5-day plot - Short Wave Radiation 1 Short Wave Radiation 1 (SRAD1): 91.8watts/meter2
Previous observations
TIME
(EDT)
5-day plot - Short Wave Radiation 1
SRAD1
w/m2
5-day plot - Short Wave Radiation 2
SRAD2
w/m2
5-day plot - Long Wave Radiation
LRAD
w/m2
2024-07-18 06:40 pm 90.0--
2024-07-18 06:30 pm 218.4--
2024-07-18 06:20 pm 315.6--
2024-07-18 06:10 pm 429.5--
2024-07-18 05:50 pm 490.1--
2024-07-18 05:40 pm 330.6--
2024-07-18 05:30 pm 535.9--
2024-07-18 05:20 pm 574.7--
2024-07-18 05:10 pm 444.8--
2024-07-18 04:50 pm 527.4--
2024-07-18 04:40 pm 500.6--
2024-07-18 04:30 pm 699.0--
2024-07-18 04:20 pm 709.0--
2024-07-18 04:10 pm 723.9--
2024-07-18 03:50 pm 762.2--
2024-07-18 03:40 pm 788.0--
2024-07-18 03:30 pm 802.0--
2024-07-18 03:20 pm 812.0--
2024-07-18 03:10 pm 821.0--
2024-07-18 03:00 pm 828.0--
2024-07-18 02:50 pm 853.0--
2024-07-18 02:40 pm 870.0--
2024-07-18 02:30 pm 878.0--
2024-07-18 02:20 pm 887.0--
2024-07-18 02:10 pm 892.0--
2024-07-18 01:50 pm 898.0--
2024-07-18 01:40 pm 900.0--
2024-07-18 01:30 pm 903.0--
2024-07-18 01:20 pm 902.0--
2024-07-18 01:10 pm 903.0--
2024-07-18 12:50 pm 906.0--
2024-07-18 12:40 pm 806.0--
2024-07-18 12:30 pm 895.0--
2024-07-18 12:20 pm 913.0--
2024-07-18 12:10 pm 897.0--
2024-07-18 12:00 pm 877.0--
2024-07-18 11:50 am 894.0--
2024-07-18 11:40 am 855.0--
2024-07-18 11:30 am 843.0--
2024-07-18 11:20 am 772.2--
2024-07-18 11:10 am 824.0--
2024-07-18 10:50 am 563.0--
2024-07-18 10:40 am 646.8--
2024-07-18 10:30 am 681.9--
2024-07-18 10:20 am 652.0--
2024-07-18 10:10 am 627.3--
2024-07-18 10:00 am 610.9--
2024-07-18 09:50 am 572.3--
2024-07-18 09:40 am 529.1--
2024-07-18 09:30 am 498.3--
2024-07-18 09:20 am 465.1--
2024-07-18 09:10 am 427.8--
2024-07-18 09:00 am 398.7--
2024-07-18 08:50 am 361.1--
2024-07-18 08:40 am 327.0--
2024-07-18 08:30 am 287.8--
2024-07-18 08:20 am 261.6--
2024-07-18 08:10 am 224.7--
2024-07-18 08:00 am 182.9--
2024-07-18 07:50 am 168.1--
2024-07-18 07:40 am 129.9--
2024-07-18 07:30 am 104.4--
2024-07-18 07:20 am 54.0--
2024-07-18 07:10 am 49.5--
2024-07-18 06:50 am 20.8--
2024-07-18 06:40 am 15.6--
2024-07-18 06:30 am 7.7--
2024-07-18 06:20 am 3.6--
2024-07-18 06:10 am 1.3--
2024-07-18 06:00 am 0.3--
2024-07-18 05:50 am 0.0--
2024-07-18 05:40 am 0.0--
2024-07-18 05:30 am 0.0--
2024-07-18 05:20 am 0.0--
2024-07-18 05:10 am 0.0--
2024-07-18 04:50 am 0.0--
2024-07-18 04:40 am 0.0--
2024-07-18 04:30 am 0.0--
2024-07-18 04:20 am 0.0--
2024-07-18 04:10 am 0.0--
2024-07-18 04:00 am 0.0--
2024-07-18 03:50 am 0.0--
2024-07-18 03:40 am 0.0--
2024-07-18 03:30 am 0.0--
2024-07-18 03:20 am 0.0--
2024-07-18 03:10 am 0.0--
2024-07-18 02:50 am 0.0--
2024-07-18 02:40 am 0.0--
2024-07-18 02:30 am 0.0--
2024-07-18 02:20 am 0.0--
2024-07-18 02:10 am 0.0--
2024-07-18 02:00 am 0.0--
2024-07-18 01:50 am 0.0--
2024-07-18 01:40 am 0.0--
2024-07-18 01:30 am 0.0--
2024-07-18 01:20 am 0.0--
2024-07-18 01:10 am 0.0--
2024-07-18 01:00 am 0.0--
2024-07-18 12:50 am 0.0--
2024-07-18 12:40 am 0.0--
2024-07-18 12:30 am 0.0--
2024-07-18 12:20 am 0.0--
2024-07-18 12:10 am 0.0--
2024-07-18 12:00 am 0.0--
2024-07-17 11:50 pm 0.0--
2024-07-17 11:40 pm 0.0--
2024-07-17 11:30 pm 0.0--
2024-07-17 11:20 pm 0.0--
2024-07-17 11:10 pm 0.0--
2024-07-17 11:00 pm 0.0--
2024-07-17 10:50 pm 0.0--
2024-07-17 10:40 pm 0.0--
2024-07-17 10:30 pm 0.0--
2024-07-17 10:20 pm 0.0--
2024-07-17 10:10 pm 0.0--
2024-07-17 10:00 pm 0.0--
2024-07-17 09:50 pm 0.0--
2024-07-17 09:40 pm 0.0--
2024-07-17 09:30 pm 0.3--
2024-07-17 09:20 pm 1.2--
2024-07-17 09:10 pm 3.4--
2024-07-17 09:00 pm 7.3--
2024-07-17 08:50 pm 12.8--
2024-07-17 08:40 pm 18.1--
2024-07-17 08:30 pm 23.6--
2024-07-17 08:20 pm 30.5--
2024-07-17 08:10 pm 44.4--
2024-07-17 08:00 pm 80.1--
2024-07-17 07:50 pm 129.2--
2024-07-17 07:40 pm 113.8--
2024-07-17 07:30 pm 162.7--
2024-07-17 07:20 pm 194.8--
2024-07-17 07:10 pm 226.6--
2024-07-17 07:00 pm 239.5--
2024-07-17 06:50 pm 274.9--